Location: Krasnoyarskiy Pitomnik
(51.1333°N, 71.6167°E)
Time: 10:19:45
(UTC+00:00)

Orbus 7S? - Pass Details

Date: 22 October 2021
Orbit: 328 x 6409 km, 56.9° (Epoch: 01 November)

Event Time Altitude Azimuth Distance (km) Brightness Sun altitude
Rises 13:45:21 0° 298° (WNW) 6,569 10.0 -16.2°
Reaches altitude 10° 13:50:54 10° 299° (WNW) 4,553 8.9 -17.0°
Maximum altitude 14:00:57 88° 211° (SSW) 932 4.4 -18.6°
Enters shadow 14:03:07 33° 124° (ESE) 1,214 4.6 -18.9°
